Time,TemperatureF,DewpointF,PressureIn,WindDirection,WindDirectionDegrees,WindSpeedMPH,WindSpeedGustMPH,Humidity,HourlyPrecipIn,Conditions,Clouds,dailyrainin,SoftwareType,DateUTC
2013-06-23 00:01:00,73.0,64.4,29.98,SSW,208,3.6,7.2,74,0.00,,---,0.00,VWS V14.01,2013-06-23 05:01:00,
2013-06-23 00:06:00,72.9,64.3,29.98,SSE,158,7.2,9.0,74,0.00,,---,0.00,VWS V14.01,2013-06-23 05:06:00,
2013-06-23 00:11:00,72.8,64.2,29.98,SSW,195,10.8,10.8,74,0.00,,---,0.00,VWS V14.01,2013-06-23 05:11:00,
2013-06-23 00:16:00,72.7,64.1,29.98,SSW,212,3.6,7.2,74,0.00,,---,0.00,VWS V14.01,2013-06-23 05:16:00,
2013-06-23 00:21:00,72.5,64.3,29.98,South,191,5.4,7.2,75,0.00,,---,0.00,VWS V14.01,2013-06-23 05:21:00,
2013-06-23 00:26:00,72.4,64.2,29.98,SW,219,3.6,3.6,75,0.00,,---,0.00,VWS V14.01,2013-06-23 05:26:00,
2013-06-23 00:31:00,72.3,64.1,29.98,SSW,199,5.4,5.4,75,0.00,,---,0.00,VWS V14.01,2013-06-23 05:31:00,
2013-06-23 00:36:00,72.2,64.0,29.98,SSW,208,3.6,5.4,75,0.00,,---,0.00,VWS V14.01,2013-06-23 05:36:00,
2013-06-23 00:41:00,72.1,63.9,29.98,SSW,203,7.2,7.2,75,0.00,,---,0.00,VWS V14.01,2013-06-23 05:41:00,
2013-06-23 00:46:00,72.1,64.2,29.98,SSW,212,1.8,3.6,76,0.00,,---,0.00,VWS V14.01,2013-06-23 05:46:00,
2013-06-23 00:51:00,72.0,64.1,29.98,SSW,208,0.0,1.8,76,0.00,,---,0.00,VWS V14.01,2013-06-23 05:51:00,
2013-06-23 00:56:00,71.9,64.0,29.98,South,190,1.8,1.8,76,0.00,,---,0.00,VWS V14.01,2013-06-23 05:56:00,
2013-06-23 01:01:00,72.0,63.8,29.97,SSW,198,1.8,3.6,75,0.00,,---,0.00,VWS V14.01,2013-06-23 06:01:00,
2013-06-23 01:06:00,71.9,64.0,29.97,WSW,255,0.0,0.0,76,0.00,,---,0.00,VWS V14.01,2013-06-23 06:06:00,
2013-06-23 01:11:00,71.9,63.7,29.97,SSW,198,0.0,0.0,75,0.00,,---,0.00,VWS V14.01,2013-06-23 06:11:00,
2013-06-23 01:16:00,71.9,64.0,29.97,SSW,198,0.0,0.0,76,0.00,,---,0.00,VWS V14.01,2013-06-23 06:16:00,
2013-06-23 01:21:00,71.9,64.0,29.97,SW,219,0.0,0.0,76,0.00,,---,0.00,VWS V14.01,2013-06-23 06:21:00,
2013-06-23 01:26:00,71.7,63.8,29.97,SW,221,0.0,0.0,76,0.00,,---,0.00,VWS V14.01,2013-06-23 06:26:00,
2013-06-23 01:31:00,71.6,64.1,29.97,SW,221,0.0,0.0,77,0.00,,---,0.00,VWS V14.01,2013-06-23 06:31:00,
2013-06-23 01:36:00,71.3,63.8,29.97,SW,221,0.0,0.0,77,0.00,,---,0.00,VWS V14.01,2013-06-23 06:36:00,
2013-06-23 01:41:00,71.1,63.9,29.97,SW,221,0.0,0.0,78,0.00,,---,0.00,VWS V14.01,2013-06-23 06:41:00,
2013-06-23 01:46:00,70.8,63.7,29.97,SW,219,0.0,0.0,78,0.00,,---,0.00,VWS V14.01,2013-06-23 06:46:00,
2013-06-23 01:51:00,70.6,63.8,29.97,SW,219,0.0,0.0,79,0.00,,---,0.00,VWS V14.01,2013-06-23 06:51:00,
2013-06-23 01:56:00,70.2,63.4,29.97,SW,219,0.0,0.0,79,0.00,,---,0.00,VWS V14.01,2013-06-23 06:56:00,
2013-06-23 02:01:00,69.9,63.5,29.97,SW,219,0.0,0.0,80,0.00,,---,0.00,VWS V14.01,2013-06-23 07:01:00,
2013-06-23 02:05:00,69.7,63.2,29.97,SW,219,0.0,0.0,80,0.00,,---,0.00,VWS V14.01,2013-06-23 07:05:00,
2013-06-23 02:10:00,69.5,63.4,29.97,SW,219,0.0,0.0,81,0.00,,---,0.00,VWS V14.01,2013-06-23 07:10:00,
2013-06-23 02:15:00,69.2,63.1,29.97,SW,219,0.0,0.0,81,0.00,,---,0.00,VWS V14.01,2013-06-23 07:15:00,
2013-06-23 02:20:00,69.1,63.0,29.97,SW,219,0.0,0.0,81,0.00,,---,0.00,VWS V14.01,2013-06-23 07:20:00,
2013-06-23 02:25:00,69.0,62.9,29.97,SW,219,0.0,0.0,81,0.00,,---,0.00,VWS V14.01,2013-06-23 07:25:00,
2013-06-23 02:30:00,68.9,62.8,29.97,SW,219,0.0,0.0,81,0.00,,---,0.00,VWS V14.01,2013-06-23 07:30:00,
2013-06-23 02:35:00,68.9,63.1,29.98,SW,221,0.0,0.0,82,0.00,,---,0.00,VWS V14.01,2013-06-23 07:35:00,
2013-06-23 02:40:00,68.8,63.0,29.98,SW,221,0.0,0.0,82,0.00,,---,0.00,VWS V14.01,2013-06-23 07:40:00,
2013-06-23 02:45:00,68.8,63.0,29.99,NNW,345,0.0,0.0,82,0.00,,---,0.00,VWS V14.01,2013-06-23 07:45:00,
2013-06-23 02:50:00,69.1,63.3,29.99,NW,319,0.0,1.8,82,0.00,,---,0.00,VWS V14.01,2013-06-23 07:50:00,
2013-06-23 02:55:00,69.3,63.2,29.98,East,98,0.0,0.0,81,0.00,,---,0.00,VWS V14.01,2013-06-23 07:55:00,
2013-06-23 03:00:00,69.3,63.2,29.98,ESE,105,0.0,0.0,81,0.00,,---,0.00,VWS V14.01,2013-06-23 08:00:00,
2013-06-23 03:05:00,69.3,63.2,29.98,ESE,104,0.0,0.0,81,0.00,,---,0.00,VWS V14.01,2013-06-23 08:05:00,
2013-06-23 03:10:00,69.2,63.1,29.98,NNE,29,0.0,0.0,81,0.00,,---,0.00,VWS V14.01,2013-06-23 08:10:00,
2013-06-23 03:15:00,69.1,63.3,29.98,North,11,0.0,0.0,82,0.00,,---,0.00,VWS V14.01,2013-06-23 08:15:00,
2013-06-23 03:20:00,68.9,63.1,29.99,ENE,75,0.0,0.0,82,0.00,,---,0.00,VWS V14.01,2013-06-23 08:20:00,
2013-06-23 03:25:00,68.9,63.1,29.99,WNW,284,0.0,1.8,82,0.00,,---,0.00,VWS V14.01,2013-06-23 08:25:00,
2013-06-23 03:30:00,68.9,63.5,30.00,NNE,24,1.8,5.4,83,0.00,,---,0.00,VWS V14.01,2013-06-23 08:30:00,
2013-06-23 03:35:00,68.9,63.5,30.00,North,7,0.0,3.6,83,0.00,,---,0.00,VWS V14.01,2013-06-23 08:35:00,
2013-06-23 03:40:00,68.9,63.5,30.00,North,7,0.0,3.6,83,0.00,,---,0.00,VWS V14.01,2013-06-23 08:40:00,
2013-06-23 03:45:00,68.8,63.3,30.00,NE,34,0.0,1.8,83,0.00,,---,0.00,VWS V14.01,2013-06-23 08:45:00,
2013-06-23 03:50:00,68.7,63.3,30.00,NE,34,0.0,0.0,83,0.00,,---,0.00,VWS V14.01,2013-06-23 08:50:00,
2013-06-23 03:55:00,68.6,63.5,30.00,East,90,0.0,0.0,84,0.00,,---,0.00,VWS V14.01,2013-06-23 08:55:00,
2013-06-23 04:00:00,68.5,63.4,30.00,NE,56,0.0,0.0,84,0.00,,---,0.00,VWS V14.01,2013-06-23 09:00:00,
2013-06-23 04:05:00,68.4,63.3,29.99,NE,56,0.0,0.0,84,0.00,,---,0.00,VWS V14.01,2013-06-23 09:05:00,
2013-06-23 04:10:00,68.3,63.5,29.99,ENE,61,0.0,0.0,85,0.00,,---,0.00,VWS V14.01,2013-06-23 09:10:00,
2013-06-23 04:15:00,68.3,63.5,29.99,ENE,62,0.0,0.0,85,0.00,,---,0.00,VWS V14.01,2013-06-23 09:15:00,
2013-06-23 04:20:00,68.2,63.4,29.99,ENE,70,0.0,0.0,85,0.00,,---,0.00,VWS V14.01,2013-06-23 09:20:00,
2013-06-23 04:25:00,68.2,63.4,29.99,ESE,109,0.0,0.0,85,0.00,,---,0.00,VWS V14.01,2013-06-23 09:25:00,
2013-06-23 04:30:00,68.2,63.4,29.99,SSE,167,0.0,0.0,85,0.00,,---,0.00,VWS V14.01,2013-06-23 09:30:00,
2013-06-23 04:35:00,68.1,63.6,29.99,SE,135,3.6,3.6,86,0.00,,---,0.00,VWS V14.01,2013-06-23 09:35:00,
2013-06-23 04:40:00,68.1,63.6,29.98,SW,214,0.0,3.6,86,0.00,,---,0.00,VWS V14.01,2013-06-23 09:40:00,
2013-06-23 04:45:00,68.1,63.6,29.98,South,190,1.8,5.4,86,0.00,,---,0.00,VWS V14.01,2013-06-23 09:45:00,
2013-06-23 04:50:00,68.0,63.2,29.99,ESE,121,0.0,5.4,85,0.00,,---,0.00,VWS V14.01,2013-06-23 09:50:00,
2013-06-23 04:55:00,68.0,63.2,30.00,ESE,121,0.0,0.0,85,0.00,,---,0.00,VWS V14.01,2013-06-23 09:55:00,
2013-06-23 05:00:00,68.0,63.2,30.01,North,356,0.0,0.0,85,0.00,,---,0.00,VWS V14.01,2013-06-23 10:00:00,
2013-06-23 05:05:00,67.9,63.1,30.01,ENE,68,0.0,0.0,85,0.00,,---,0.00,VWS V14.01,2013-06-23 10:05:00,
2013-06-23 05:10:00,67.8,63.0,30.01,SW,214,0.0,0.0,85,0.00,,---,0.00,VWS V14.01,2013-06-23 10:10:00,
2013-06-23 05:15:00,67.7,62.9,30.01,ESE,107,0.0,3.6,85,0.00,,---,0.00,VWS V14.01,2013-06-23 10:15:00,
2013-06-23 05:20:00,67.5,62.7,30.01,ESE,112,0.0,1.8,85,0.00,,---,0.00,VWS V14.01,2013-06-23 10:20:00,
2013-06-23 05:25:00,67.4,62.9,30.01,ESE,110,0.0,1.8,86,0.00,,---,0.00,VWS V14.01,2013-06-23 10:25:00,
2013-06-23 05:30:00,67.2,62.7,30.01,ESE,120,0.0,0.0,86,0.00,,---,0.00,VWS V14.01,2013-06-23 10:30:00,
2013-06-23 05:35:00,67.1,62.6,30.00,SE,131,0.0,0.0,86,0.00,,---,0.00,VWS V14.01,2013-06-23 10:35:00,
2013-06-23 05:40:00,67.0,62.5,30.00,ESE,115,0.0,0.0,86,0.00,,---,0.00,VWS V14.01,2013-06-23 10:40:00,
2013-06-23 05:45:00,66.9,62.4,30.00,ESE,108,0.0,0.0,86,0.00,,---,0.00,VWS V14.01,2013-06-23 10:45:00,
2013-06-23 05:50:00,66.8,62.3,30.00,ESE,112,0.0,0.0,86,0.00,,---,0.00,VWS V14.01,2013-06-23 10:50:00,
2013-06-23 05:55:00,66.7,62.2,29.99,SE,134,3.6,3.6,86,0.00,,---,0.00,VWS V14.01,2013-06-23 10:55:00,
2013-06-23 06:00:00,66.7,62.5,29.99,ESE,114,3.6,5.4,86,0.00,,---,0.00,VWS V14.01,2013-06-23 11:00:00,
2013-06-23 06:05:00,66.7,62.5,29.99,SE,131,0.0,9.0,86,0.00,,---,0.00,VWS V14.01,2013-06-23 11:05:00,
2013-06-23 06:10:00,66.8,62.3,29.99,East,101,3.6,3.6,86,0.00,,---,0.00,VWS V14.01,2013-06-23 11:10:00,
2013-06-23 06:15:00,66.9,62.4,29.99,SE,131,1.8,5.4,86,0.00,,---,0.00,VWS V14.01,2013-06-23 11:15:00,
2013-06-23 06:20:00,67.0,62.5,29.99,SE,142,0.0,3.6,86,0.00,,---,0.00,VWS V14.01,2013-06-23 11:20:00,
2013-06-23 06:25:00,67.1,62.6,29.99,SSW,205,1.8,9.0,86,0.00,,---,0.00,VWS V14.01,2013-06-23 11:25:00,
2013-06-23 06:30:00,67.4,62.6,29.99,WSW,253,0.0,3.6,85,0.00,,---,0.00,VWS V14.01,2013-06-23 11:30:00,
2013-06-23 06:35:00,67.5,62.7,29.99,SE,129,0.0,7.2,85,0.00,,---,0.00,VWS V14.01,2013-06-23 11:35:00,
2013-06-23 06:40:00,67.6,62.8,29.98,ESE,120,0.0,3.6,85,0.00,,---,0.00,VWS V14.01,2013-06-23 11:40:00,
2013-06-23 06:45:00,67.7,62.9,29.98,ESE,122,0.0,3.6,85,0.00,,---,0.00,VWS V14.01,2013-06-23 11:45:00,
2013-06-23 06:50:00,67.9,63.1,29.98,SW,229,0.0,3.6,85,0.00,,---,0.00,VWS V14.01,2013-06-23 11:50:00,
2013-06-23 06:55:00,68.1,63.3,29.98,SE,134,0.0,1.8,85,0.00,,---,0.00,VWS V14.01,2013-06-23 11:55:00,
2013-06-23 07:00:00,68.3,63.2,29.98,SW,215,3.6,5.4,84,0.00,,---,0.00,VWS V14.01,2013-06-23 12:00:00,
2013-06-23 07:05:00,68.6,63.5,29.97,SSW,198,1.8,7.2,84,0.00,,---,0.00,VWS V14.01,2013-06-23 12:05:00,
2013-06-23 07:10:00,69.0,63.5,29.97,East,101,5.4,9.0,83,0.00,,---,0.00,VWS V14.01,2013-06-23 12:10:00,
2013-06-23 07:15:00,69.3,63.5,29.97,ESE,110,1.8,12.6,82,0.00,,---,0.00,VWS V14.01,2013-06-23 12:15:00,
2013-06-23 07:20:00,69.5,63.7,29.96,South,183,1.8,9.0,82,0.00,,---,0.00,VWS V14.01,2013-06-23 12:20:00,
2013-06-23 07:25:00,69.7,63.9,29.96,SSW,205,0.0,9.0,82,0.00,,---,0.00,VWS V14.01,2013-06-23 12:25:00,
2013-06-23 07:30:00,69.9,63.8,29.96,SSE,149,5.4,10.8,81,0.00,,---,0.00,VWS V14.01,2013-06-23 12:30:00,
2013-06-23 07:35:00,70.2,64.1,29.96,ESE,105,0.0,5.4,81,0.00,,---,0.00,VWS V14.01,2013-06-23 12:35:00,
2013-06-23 07:40:00,70.5,64.4,29.96,East,94,5.4,10.8,81,0.00,,---,0.00,VWS V14.01,2013-06-23 12:40:00,
2013-06-23 07:45:00,70.7,64.2,29.96,South,181,3.6,16.2,80,0.00,,---,0.00,VWS V14.01,2013-06-23 12:45:00,
2013-06-23 07:50:00,71.1,64.3,29.96,SSW,203,5.4,10.8,79,0.00,,---,0.00,VWS V14.01,2013-06-23 12:50:00,
2013-06-23 07:55:00,71.4,64.2,29.96,South,190,12.6,14.4,78,0.00,,---,0.00,VWS V14.01,2013-06-23 12:55:00,
2013-06-23 08:00:00,71.5,64.3,29.96,SE,145,5.4,14.4,78,0.00,,---,0.00,VWS V14.01,2013-06-23 13:00:00,
2013-06-23 08:05:00,71.7,64.5,29.96,SSW,201,1.8,12.6,78,0.00,,---,0.00,VWS V14.01,2013-06-23 13:05:00,
2013-06-23 08:10:00,71.9,64.7,29.96,SSE,160,10.8,14.4,78,0.00,,---,0.00,VWS V14.01,2013-06-23 13:10:00,
2013-06-23 08:15:00,71.9,64.7,29.96,SW,215,3.6,14.4,78,0.00,,---,0.00,VWS V14.01,2013-06-23 13:15:00,
2013-06-23 08:20:00,72.2,65.0,29.96,SE,141,0.0,12.6,78,0.00,,---,0.00,VWS V14.01,2013-06-23 13:20:00,
2013-06-23 08:25:00,72.6,65.4,29.96,SW,226,5.4,10.8,78,0.00,,---,0.00,VWS V14.01,2013-06-23 13:25:00,
2013-06-23 08:30:00,73.0,65.4,29.96,ESE,109,5.4,12.6,77,0.00,,---,0.00,VWS V14.01,2013-06-23 13:30:00,
2013-06-23 08:35:00,73.2,64.9,29.97,SW,236,3.6,14.4,75,0.00,,---,0.00,VWS V14.01,2013-06-23 13:35:00,
2013-06-23 08:40:00,73.6,65.0,29.97,SW,226,3.6,14.4,74,0.00,,---,0.00,VWS V14.01,2013-06-23 13:40:00,
2013-06-23 08:45:00,74.3,65.6,29.97,South,187,7.2,10.8,74,0.00,,---,0.00,VWS V14.01,2013-06-23 13:45:00,
2013-06-23 08:50:00,74.8,65.8,29.97,SE,139,3.6,9.0,73,0.00,,---,0.00,VWS V14.01,2013-06-23 13:50:00,
2013-06-23 08:55:00,75.2,65.8,29.97,SSW,195,3.6,9.0,73,0.00,,---,0.00,VWS V14.01,2013-06-23 13:55:00,
2013-06-23 09:01:00,75.6,65.8,29.97,SSW,201,12.6,12.6,72,0.00,,---,0.00,VWS V14.01,2013-06-23 14:01:00,
2013-06-23 09:06:00,76.0,66.2,29.97,SW,229,3.6,3.6,72,0.00,,---,0.00,VWS V14.01,2013-06-23 14:06:00,
2013-06-23 09:11:00,76.3,66.1,29.97,West,264,3.6,7.2,71,0.00,,---,0.00,VWS V14.01,2013-06-23 14:11:00,
2013-06-23 09:16:00,77.1,66.5,29.97,SSW,198,1.8,3.6,70,0.00,,---,0.00,VWS V14.01,2013-06-23 14:16:00,
2013-06-23 09:21:00,77.5,66.5,29.97,South,191,7.2,10.8,69,0.00,,---,0.00,VWS V14.01,2013-06-23 14:21:00,
2013-06-23 09:26:00,77.7,66.3,29.97,WSW,245,3.6,12.6,68,0.00,,---,0.00,VWS V14.01,2013-06-23 14:26:00,
2013-06-23 09:31:00,78.1,66.2,29.97,SSW,195,7.2,10.8,67,0.00,,---,0.00,VWS V14.01,2013-06-23 14:31:00,
2013-06-23 09:36:00,78.4,66.5,29.97,SE,124,1.8,1.8,67,0.00,,---,0.00,VWS V14.01,2013-06-23 14:36:00,
2013-06-23 09:41:00,79.0,67.1,29.97,SW,225,3.6,5.4,67,0.00,,---,0.00,VWS V14.01,2013-06-23 14:41:00,
2013-06-23 09:46:00,79.4,67.1,29.97,SSE,165,5.4,10.8,66,0.00,,---,0.00,VWS V14.01,2013-06-23 14:46:00,
2013-06-23 09:51:00,80.0,67.2,29.97,SSW,212,1.8,7.2,65,0.00,,---,0.00,VWS V14.01,2013-06-23 14:51:00,
2013-06-23 09:56:00,80.3,67.1,29.98,West,276,1.8,7.2,64,0.00,,---,0.00,VWS V14.01,2013-06-23 14:56:00,
2013-06-23 10:01:00,80.6,67.8,29.98,ESE,122,3.6,9.0,65,0.00,,---,0.00,VWS V14.01,2013-06-23 15:01:00,
2013-06-23 10:06:00,80.7,67.5,29.97,SW,231,3.6,5.4,64,0.00,,---,0.00,VWS V14.01,2013-06-23 15:06:00,
2013-06-23 10:11:00,81.0,67.8,29.97,South,186,9.0,9.0,64,0.00,,---,0.00,VWS V14.01,2013-06-23 15:11:00,
2013-06-23 10:16:00,81.2,68.4,29.97,SSW,198,1.8,9.0,65,0.00,,---,0.00,VWS V14.01,2013-06-23 15:16:00,
2013-06-23 10:21:00,81.4,68.1,29.97,SW,224,3.6,5.4,64,0.00,,---,0.00,VWS V14.01,2013-06-23 15:21:00,
2013-06-23 10:26:00,81.6,68.3,29.97,SW,229,7.2,7.2,64,0.00,,---,0.00,VWS V14.01,2013-06-23 15:26:00,
2013-06-23 10:31:00,82.1,68.4,29.97,SSE,167,1.8,9.0,63,0.00,,---,0.00,VWS V14.01,2013-06-23 15:31:00,
2013-06-23 10:36:00,82.6,68.8,29.97,WSW,248,7.2,9.0,63,0.00,,---,0.00,VWS V14.01,2013-06-23 15:36:00,
2013-06-23 10:41:00,82.9,68.3,29.97,South,170,3.6,16.2,61,0.00,,---,0.00,VWS V14.01,2013-06-23 15:41:00,
2013-06-23 10:46:00,83.2,69.0,29.97,WSW,256,5.4,9.0,62,0.00,,---,0.00,VWS V14.01,2013-06-23 15:46:00,
2013-06-23 10:51:00,83.3,68.6,29.97,SW,224,3.6,9.0,61,0.00,,---,0.00,VWS V14.01,2013-06-23 15:51:00,
2013-06-23 10:56:00,83.8,68.7,29.97,SW,226,7.2,12.6,60,0.00,,---,0.00,VWS V14.01,2013-06-23 15:56:00,
2013-06-23 11:01:00,84.1,69.8,29.97,WSW,252,5.4,5.4,62,0.00,,---,0.00,VWS V14.01,2013-06-23 16:01:00,
2013-06-23 11:06:00,84.8,70.1,29.97,WSW,246,3.6,10.8,61,0.00,,---,0.00,VWS V14.01,2013-06-23 16:06:00,
2013-06-23 11:11:00,85.1,69.4,29.97,SSW,201,18.0,18.0,60,0.00,,---,0.00,VWS V14.01,2013-06-23 16:11:00,
2013-06-23 11:16:00,84.9,69.2,29.97,West,279,1.8,7.2,60,0.00,,---,0.00,VWS V14.01,2013-06-23 16:16:00,
2013-06-23 11:21:00,85.3,70.1,29.97,SSW,195,1.8,7.2,60,0.00,,---,0.00,VWS V14.01,2013-06-23 16:21:00,
2013-06-23 11:26:00,85.9,70.6,29.97,SE,128,3.6,9.0,60,0.00,,---,0.00,VWS V14.01,2013-06-23 16:26:00,
2013-06-23 11:31:00,85.7,70.4,29.97,West,262,3.6,5.4,60,0.00,,---,0.00,VWS V14.01,2013-06-23 16:31:00,
2013-06-23 11:36:00,86.0,70.3,29.97,SSW,213,5.4,18.0,60,0.00,,---,0.00,VWS V14.01,2013-06-23 16:36:00,
2013-06-23 11:41:00,86.4,70.2,29.97,WSW,245,5.4,10.8,59,0.00,,---,0.00,VWS V14.01,2013-06-23 16:41:00,
2013-06-23 11:46:00,86.8,70.1,29.97,West,281,1.8,7.2,58,0.00,,---,0.00,VWS V14.01,2013-06-23 16:46:00,
2013-06-23 11:51:00,87.1,70.4,29.97,SE,139,5.4,10.8,58,0.00,,---,0.00,VWS V14.01,2013-06-23 16:51:00,
2013-06-23 11:56:00,87.6,69.9,29.96,South,190,18.0,23.4,56,0.00,,---,0.00,VWS V14.01,2013-06-23 16:56:00,
2013-06-23 11:57:00,87.6,69.9,29.96,WSW,238,7.2,23.4,56,0.00,,---,0.00,VWS V14.01,2013-06-23 16:57:00,
2013-06-23 12:03:00,87.8,70.1,29.96,SSE,166,5.4,14.4,56,0.00,,---,0.00,VWS V14.01,2013-06-23 17:03:00,
2013-06-23 12:08:00,87.7,70.0,29.96,West,264,5.4,9.0,56,0.00,,---,0.00,VWS V14.01,2013-06-23 17:08:00,
2013-06-23 12:13:00,87.2,69.5,29.95,SSW,195,3.6,7.2,56,0.00,,---,0.00,VWS V14.01,2013-06-23 17:13:00,
2013-06-23 12:18:00,87.1,70.8,29.95,SW,218,1.8,10.8,59,0.00,,---,0.00,VWS V14.01,2013-06-23 17:18:00,
2013-06-23 12:23:00,87.8,71.0,29.95,WSW,249,3.6,19.8,58,0.00,,---,0.00,VWS V14.01,2013-06-23 17:23:00,
2013-06-23 12:28:00,88.7,69.9,29.95,SSE,150,5.4,10.8,54,0.00,,---,0.00,VWS V14.01,2013-06-23 17:28:00,
2013-06-23 12:33:00,89.0,69.7,29.95,WSW,248,5.4,12.6,53,0.00,,---,0.00,VWS V14.01,2013-06-23 17:33:00,
2013-06-23 12:38:00,89.3,69.9,29.95,West,267,5.4,10.8,53,0.00,,---,0.00,VWS V14.01,2013-06-23 17:38:00,
2013-06-23 12:43:00,89.0,69.7,29.95,WSW,252,7.2,16.2,53,0.00,,---,0.00,VWS V14.01,2013-06-23 17:43:00,
2013-06-23 12:48:00,89.2,70.4,29.95,West,269,5.4,18.0,54,0.00,,---,0.00,VWS V14.01,2013-06-23 17:48:00,
2013-06-23 12:53:00,89.0,70.2,29.95,SW,219,3.6,3.6,54,0.00,,---,0.00,VWS V14.01,2013-06-23 17:53:00,
2013-06-23 12:58:00,89.2,69.8,29.95,WSW,256,5.4,9.0,53,0.00,,---,0.00,VWS V14.01,2013-06-23 17:58:00,
2013-06-23 13:03:00,88.9,69.1,29.95,West,274,1.8,12.6,52,0.00,,---,0.00,VWS V14.01,2013-06-23 18:03:00,
2013-06-23 13:08:00,89.2,69.8,29.95,South,177,3.6,16.2,53,0.00,,---,0.00,VWS V14.01,2013-06-23 18:08:00,
2013-06-23 13:13:00,88.9,69.1,29.95,SW,218,1.8,14.4,52,0.00,,---,0.00,VWS V14.01,2013-06-23 18:13:00,
2013-06-23 13:18:00,88.5,69.2,29.94,West,276,5.4,10.8,53,0.00,,---,0.00,VWS V14.01,2013-06-23 18:18:00,
2013-06-23 13:23:00,88.3,69.5,29.94,WSW,238,1.8,5.4,54,0.00,,---,0.00,VWS V14.01,2013-06-23 18:23:00,
2013-06-23 13:28:00,88.2,69.4,29.95,NW,313,10.8,16.2,54,0.00,,---,0.00,VWS V14.01,2013-06-23 18:28:00,
2013-06-23 13:33:00,86.2,67.1,29.95,West,262,9.0,12.6,53,0.00,,---,0.00,VWS V14.01,2013-06-23 18:33:00,
2013-06-23 13:38:00,84.9,65.4,29.95,WSW,239,5.4,16.2,52,0.00,,---,0.00,VWS V14.01,2013-06-23 18:38:00,
2013-06-23 13:43:00,83.7,64.3,29.94,NW,305,1.8,10.8,52,0.00,,---,0.00,VWS V14.01,2013-06-23 18:43:00,
2013-06-23 13:48:00,83.2,64.8,29.94,West,271,1.8,3.6,54,0.00,,---,0.00,VWS V14.01,2013-06-23 18:48:00,
2013-06-23 13:53:00,82.8,63.4,29.94,NNW,334,1.8,5.4,52,0.00,,---,0.00,VWS V14.01,2013-06-23 18:53:00,
2013-06-23 13:58:00,82.6,64.3,29.93,West,270,1.8,7.2,54,0.00,,---,0.00,VWS V14.01,2013-06-23 18:58:00,
2013-06-23 14:03:00,83.3,65.4,29.92,NW,311,3.6,7.2,55,0.00,,---,0.00,VWS V14.01,2013-06-23 19:03:00,
2013-06-23 14:08:00,84.0,64.5,29.91,NW,311,1.8,5.4,52,0.00,,---,0.00,VWS V14.01,2013-06-23 19:08:00,
2013-06-23 14:13:00,84.5,64.5,29.90,NW,307,5.4,7.2,51,0.00,,---,0.00,VWS V14.01,2013-06-23 19:13:00,
2013-06-23 14:18:00,84.5,63.4,29.90,WNW,302,1.8,10.8,49,0.00,,---,0.00,VWS V14.01,2013-06-23 19:18:00,
2013-06-23 14:23:00,84.6,65.1,29.91,NW,319,5.4,7.2,52,0.00,,---,0.00,VWS V14.01,2013-06-23 19:23:00,
2013-06-23 14:28:00,85.1,66.6,29.91,East,96,1.8,5.4,54,0.00,,---,0.00,VWS V14.01,2013-06-23 19:28:00,
2013-06-23 14:33:00,86.2,66.1,29.90,NNE,32,0.0,0.0,51,0.00,,---,0.00,VWS V14.01,2013-06-23 19:33:00,
2013-06-23 14:38:00,86.0,63.7,29.90,NNW,338,0.0,7.2,47,0.00,,---,0.00,VWS V14.01,2013-06-23 19:38:00,
2013-06-23 14:43:00,85.4,63.7,29.90,WSW,249,0.0,3.6,48,0.00,,---,0.00,VWS V14.01,2013-06-23 19:43:00,
2013-06-23 14:48:00,85.0,63.9,29.90,WSW,257,1.8,5.4,49,0.00,,---,0.00,VWS V14.01,2013-06-23 19:48:00,
2013-06-23 14:53:00,84.6,63.5,29.91,SSW,212,3.6,7.2,49,0.00,,---,0.00,VWS V14.01,2013-06-23 19:53:00,
2013-06-23 14:58:00,84.1,64.6,29.91,SSW,213,9.0,9.0,52,0.00,,---,0.00,VWS V14.01,2013-06-23 19:58:00,
2013-06-23 15:03:00,83.2,64.3,29.91,SSW,195,1.8,7.2,53,0.00,,---,0.00,VWS V14.01,2013-06-23 20:03:00,
2013-06-23 15:08:00,82.6,65.2,29.91,ESE,121,5.4,5.4,56,0.00,,---,0.00,VWS V14.01,2013-06-23 20:08:00,
2013-06-23 15:13:00,81.7,64.9,29.90,SSW,193,1.8,10.8,57,0.00,,---,0.00,VWS V14.01,2013-06-23 20:13:00,
2013-06-23 15:18:00,81.1,64.8,29.89,SE,124,1.8,5.4,58,0.00,,---,0.00,VWS V14.01,2013-06-23 20:18:00,
2013-06-23 15:23:00,80.7,64.9,29.88,ESE,122,3.6,7.2,59,0.00,,---,0.00,VWS V14.01,2013-06-23 20:23:00,
2013-06-23 15:28:00,80.3,65.4,29.88,SSW,201,1.8,10.8,60,0.00,,---,0.00,VWS V14.01,2013-06-23 20:28:00,
2013-06-23 15:33:00,79.7,67.4,29.88,ESE,109,5.4,10.8,66,0.00,,---,0.00,VWS V14.01,2013-06-23 20:33:00,
2013-06-23 15:38:00,78.6,67.1,29.87,SE,136,3.6,12.6,68,0.00,,---,0.00,VWS V14.01,2013-06-23 20:38:00,
2013-06-23 15:43:00,77.6,66.6,29.87,SW,221,1.8,12.6,69,0.00,,---,0.00,VWS V14.01,2013-06-23 20:43:00,
2013-06-23 15:48:00,76.7,66.8,29.87,East,88,1.8,7.2,72,0.00,,---,0.00,VWS V14.01,2013-06-23 20:48:00,
2013-06-23 15:53:00,76.2,66.7,29.87,SSW,200,3.6,7.2,73,0.00,,---,0.00,VWS V14.01,2013-06-23 20:53:00,
2013-06-23 15:58:00,75.9,66.4,29.86,SW,224,5.4,9.0,73,0.00,,---,0.00,VWS V14.01,2013-06-23 20:58:00,
2013-06-23 16:03:00,75.6,66.5,29.86,East,91,7.2,7.2,73,0.00,,---,0.00,VWS V14.01,2013-06-23 21:03:00,
2013-06-23 16:08:00,75.4,66.3,29.86,SW,233,9.0,12.6,73,0.00,,---,0.00,VWS V14.01,2013-06-23 21:08:00,
2013-06-23 16:13:00,75.4,66.7,29.86,North,350,0.0,5.4,74,0.00,,---,0.00,VWS V14.01,2013-06-23 21:13:00,
2013-06-23 16:18:00,75.5,66.4,29.87,East,91,1.8,5.4,73,0.00,,---,0.00,VWS V14.01,2013-06-23 21:18:00,
2013-06-23 16:23:00,75.8,67.1,29.88,NE,56,0.0,1.8,74,0.00,,---,0.00,VWS V14.01,2013-06-23 21:23:00,
2013-06-23 16:28:00,76.1,67.0,29.87,SE,127,0.0,1.8,73,0.00,,---,0.00,VWS V14.01,2013-06-23 21:28:00,
2013-06-23 16:33:00,76.2,67.1,29.87,ESE,121,0.0,3.6,73,0.00,,---,0.00,VWS V14.01,2013-06-23 21:33:00,
2013-06-23 16:38:00,76.4,67.3,29.87,East,100,0.0,5.4,73,0.00,,---,0.00,VWS V14.01,2013-06-23 21:38:00,
2013-06-23 16:43:00,76.5,67.4,29.88,NNE,22,0.0,3.6,73,0.00,,---,0.00,VWS V14.01,2013-06-23 21:43:00,
2013-06-23 16:48:00,76.7,67.6,29.88,East,90,0.0,1.8,73,0.00,,---,0.00,VWS V14.01,2013-06-23 21:48:00,
2013-06-23 16:53:00,77.0,67.9,29.89,ESE,120,1.8,3.6,73,0.00,,---,0.00,VWS V14.01,2013-06-23 21:53:00,
2013-06-23 16:58:00,77.0,67.9,29.88,SE,132,0.0,3.6,73,0.00,,---,0.00,VWS V14.01,2013-06-23 21:58:00,
2013-06-23 17:03:00,76.7,67.9,29.89,ESE,117,0.0,1.8,74,0.00,,---,0.00,VWS V14.01,2013-06-23 22:03:00,
2013-06-23 17:08:00,76.4,67.7,29.89,SSW,195,0.0,5.4,74,0.00,,---,0.00,VWS V14.01,2013-06-23 22:08:00,
2013-06-23 17:13:00,76.2,67.8,29.89,ESE,105,0.0,1.8,75,0.00,,---,0.00,VWS V14.01,2013-06-23 22:13:00,
2013-06-23 17:18:00,76.2,67.8,29.90,ESE,121,1.8,3.6,75,0.00,,---,0.00,VWS V14.01,2013-06-23 22:18:00,
2013-06-23 17:23:00,76.4,68.4,29.90,South,177,0.0,0.0,76,0.00,,---,0.00,VWS V14.01,2013-06-23 22:23:00,
2013-06-23 17:28:00,76.9,68.5,29.91,ESE,118,1.8,7.2,75,0.00,,---,0.00,VWS V14.01,2013-06-23 22:28:00,
2013-06-23 17:33:00,77.1,68.0,29.91,SSW,205,0.0,7.2,73,0.00,,---,0.00,VWS V14.01,2013-06-23 22:33:00,
2013-06-23 17:38:00,77.4,68.3,29.91,South,191,7.2,7.2,73,0.00,,---,0.00,VWS V14.01,2013-06-23 22:38:00,
2013-06-23 17:43:00,77.6,67.7,29.91,SSE,154,3.6,7.2,72,0.00,,---,0.00,VWS V14.01,2013-06-23 22:43:00,
2013-06-23 17:48:00,77.8,67.9,29.92,SSW,193,1.8,7.2,72,0.00,,---,0.00,VWS V14.01,2013-06-23 22:48:00,
2013-06-23 17:53:00,77.8,67.5,29.92,ESE,118,3.6,5.4,71,0.00,,---,0.00,VWS V14.01,2013-06-23 22:53:00,
2013-06-23 17:58:00,77.9,67.2,29.92,SW,215,0.0,5.4,70,0.00,,---,0.00,VWS V14.01,2013-06-23 22:58:00,
2013-06-23 18:03:00,78.0,67.7,29.93,ESE,110,3.6,5.4,71,0.00,,---,0.00,VWS V14.01,2013-06-23 23:03:00,
2013-06-23 18:08:00,78.1,67.0,29.93,SW,230,7.2,7.2,69,0.00,,---,0.00,VWS V14.01,2013-06-23 23:08:00,
2013-06-23 18:13:00,78.3,66.8,29.93,South,184,0.0,3.6,68,0.00,,---,0.00,VWS V14.01,2013-06-23 23:13:00,
2013-06-23 18:18:00,78.3,66.8,29.93,ESE,121,5.4,12.6,68,0.00,,---,0.00,VWS V14.01,2013-06-23 23:18:00,
2013-06-23 18:23:00,78.2,67.1,29.93,South,188,5.4,10.8,69,0.00,,---,0.00,VWS V14.01,2013-06-23 23:23:00,
2013-06-23 18:28:00,78.4,67.3,29.93,SW,215,7.2,7.2,69,0.00,,---,0.00,VWS V14.01,2013-06-23 23:28:00,
2013-06-23 18:33:00,78.5,67.4,29.93,South,188,0.0,1.8,69,0.00,,---,0.00,VWS V14.01,2013-06-23 23:33:00,
2013-06-23 18:38:00,78.6,67.1,29.93,ESE,112,0.0,7.2,68,0.00,,---,0.00,VWS V14.01,2013-06-23 23:38:00,
2013-06-23 18:43:00,78.5,67.0,29.93,SW,231,3.6,7.2,68,0.00,,---,0.00,VWS V14.01,2013-06-23 23:43:00,
2013-06-23 18:48:00,78.3,67.2,29.93,SSW,198,3.6,5.4,69,0.00,,---,0.00,VWS V14.01,2013-06-23 23:48:00,
2013-06-23 18:53:00,78.2,67.1,29.93,SSW,205,1.8,7.2,69,0.00,,---,0.00,VWS V14.01,2013-06-23 23:53:00,
2013-06-23 18:58:00,78.1,67.0,29.94,SW,221,10.8,10.8,69,0.00,,---,0.00,VWS V14.01,2013-06-23 23:58:00,
2013-06-23 19:03:00,77.8,66.8,29.93,SW,231,3.6,7.2,69,0.00,,---,0.00,VWS V14.01,2013-06-24 00:03:00,
2013-06-23 19:08:00,77.7,67.0,29.93,SSW,200,1.8,7.2,70,0.00,,---,0.00,VWS V14.01,2013-06-24 00:08:00,
2013-06-23 19:13:00,77.5,66.8,29.94,SSW,194,3.6,5.4,70,0.00,,---,0.00,VWS V14.01,2013-06-24 00:13:00,
2013-06-23 19:18:00,77.5,67.2,29.95,South,190,1.8,1.8,71,0.00,,---,0.00,VWS V14.01,2013-06-24 00:18:00,
2013-06-23 19:23:00,77.5,67.2,29.94,South,184,1.8,3.6,71,0.00,,---,0.00,VWS V14.01,2013-06-24 00:23:00,
2013-06-23 19:28:00,77.5,67.6,29.94,SSW,193,1.8,1.8,72,0.00,,---,0.00,VWS V14.01,2013-06-24 00:28:00,
2013-06-23 19:33:00,77.5,67.6,29.95,SW,218,0.0,1.8,72,0.00,,---,0.00,VWS V14.01,2013-06-24 00:33:00,
2013-06-23 19:38:00,77.4,67.5,29.95,SSW,205,0.0,1.8,72,0.00,,---,0.00,VWS V14.01,2013-06-24 00:38:00,
2013-06-23 19:43:00,77.4,67.5,29.95,SSW,201,1.8,1.8,72,0.00,,---,0.00,VWS V14.01,2013-06-24 00:43:00,
2013-06-23 19:48:00,77.4,67.5,29.95,South,191,1.8,3.6,72,0.00,,---,0.00,VWS V14.01,2013-06-24 00:48:00,
2013-06-23 19:53:00,77.2,67.3,29.95,SSW,201,0.0,3.6,72,0.00,,---,0.00,VWS V14.01,2013-06-24 00:53:00,
2013-06-23 19:58:00,77.1,67.2,29.95,South,174,3.6,5.4,72,0.00,,---,0.00,VWS V14.01,2013-06-24 00:58:00,
2013-06-23 20:03:00,76.9,67.0,29.95,SE,128,1.8,5.4,72,0.00,,---,0.00,VWS V14.01,2013-06-24 01:03:00,
2013-06-23 20:08:00,76.8,66.9,29.95,SSW,205,0.0,3.6,72,0.00,,---,0.00,VWS V14.01,2013-06-24 01:08:00,
2013-06-23 20:13:00,76.6,66.8,29.95,SSW,198,3.6,9.0,72,0.00,,---,0.00,VWS V14.01,2013-06-24 01:13:00,
2013-06-23 20:18:00,76.4,66.6,29.94,SSW,203,5.4,7.2,72,0.00,,---,0.00,VWS V14.01,2013-06-24 01:18:00,
2013-06-23 20:23:00,76.3,66.8,29.95,SW,214,3.6,3.6,73,0.00,,---,0.00,VWS V14.01,2013-06-24 01:23:00,
2013-06-23 20:28:00,76.1,66.6,29.95,SSW,198,0.0,1.8,73,0.00,,---,0.00,VWS V14.01,2013-06-24 01:28:00,
2013-06-23 20:33:00,75.9,66.4,29.95,South,173,3.6,3.6,73,0.00,,---,0.00,VWS V14.01,2013-06-24 01:33:00,
2013-06-23 20:38:00,75.7,66.6,29.95,South,177,0.0,3.6,73,0.00,,---,0.00,VWS V14.01,2013-06-24 01:38:00,
2013-06-23 20:42:00,75.5,66.4,29.95,SW,218,0.0,3.6,73,0.00,,---,0.00,VWS V14.01,2013-06-24 01:42:00,
2013-06-23 20:47:00,75.2,66.5,29.95,SSW,205,1.8,1.8,74,0.00,,---,0.00,VWS V14.01,2013-06-24 01:47:00,
2013-06-23 20:52:00,75.0,66.3,29.95,SSW,203,1.8,1.8,74,0.00,,---,0.00,VWS V14.01,2013-06-24 01:52:00,
2013-06-23 20:57:00,74.8,66.5,29.95,SSW,201,0.0,0.0,75,0.00,,---,0.00,VWS V14.01,2013-06-24 01:57:00,
2013-06-23 21:02:00,74.6,66.3,29.95,SSW,201,0.0,0.0,75,0.00,,---,0.00,VWS V14.01,2013-06-24 02:02:00,
2013-06-23 21:07:00,74.2,66.2,29.95,SSW,192,1.8,1.8,76,0.00,,---,0.00,VWS V14.01,2013-06-24 02:07:00,
2013-06-23 21:12:00,74.0,66.4,29.95,SSW,212,1.8,3.6,77,0.00,,---,0.00,VWS V14.01,2013-06-24 02:12:00,
2013-06-23 21:17:00,73.9,66.3,29.95,South,183,1.8,1.8,77,0.00,,---,0.00,VWS V14.01,2013-06-24 02:17:00,
2013-06-23 21:22:00,73.8,66.2,29.95,SSW,212,0.0,3.6,77,0.00,,---,0.00,VWS V14.01,2013-06-24 02:22:00,
2013-06-23 21:27:00,73.6,66.4,29.95,SSE,164,0.0,3.6,78,0.00,,---,0.00,VWS V14.01,2013-06-24 02:27:00,
2013-06-23 21:32:00,73.4,66.2,29.95,SSW,201,1.8,5.4,78,0.00,,---,0.00,VWS V14.01,2013-06-24 02:32:00,
2013-06-23 21:37:00,73.3,66.1,29.95,SSW,197,1.8,3.6,78,0.00,,---,0.00,VWS V14.01,2013-06-24 02:37:00,
2013-06-23 21:42:00,73.2,66.0,29.95,South,183,1.8,5.4,78,0.00,,---,0.00,VWS V14.01,2013-06-24 02:42:00,
2013-06-23 21:47:00,73.2,66.0,29.95,SW,221,3.6,7.2,78,0.00,,---,0.00,VWS V14.01,2013-06-24 02:47:00,
2013-06-23 21:52:00,73.2,66.3,29.95,SSW,212,1.8,3.6,79,0.00,,---,0.00,VWS V14.01,2013-06-24 02:52:00,
2013-06-23 21:57:00,73.1,66.2,29.95,SSW,205,0.0,5.4,79,0.00,,---,0.00,VWS V14.01,2013-06-24 02:57:00,
2013-06-23 22:02:00,73.0,66.1,29.96,SSE,154,0.0,0.0,79,0.00,,---,0.00,VWS V14.01,2013-06-24 03:02:00,
2013-06-23 22:07:00,73.0,66.1,29.95,SW,224,1.8,5.4,79,0.00,,---,0.00,VWS V14.01,2013-06-24 03:07:00,
2013-06-23 22:12:00,73.0,66.1,29.96,SE,143,0.0,1.8,79,0.00,,---,0.00,VWS V14.01,2013-06-24 03:12:00,
2013-06-23 22:17:00,73.0,66.1,29.95,SSW,194,1.8,5.4,79,0.00,,---,0.00,VWS V14.01,2013-06-24 03:17:00,
2013-06-23 22:22:00,72.9,66.4,29.96,SW,215,1.8,3.6,80,0.00,,---,0.00,VWS V14.01,2013-06-24 03:22:00,
2013-06-23 22:27:00,72.9,66.4,29.96,SW,214,1.8,7.2,80,0.00,,---,0.00,VWS V14.01,2013-06-24 03:27:00,
2013-06-23 22:32:00,72.8,66.3,29.96,SSW,208,1.8,3.6,80,0.00,,---,0.00,VWS V14.01,2013-06-24 03:32:00,
2013-06-23 22:37:00,72.8,66.3,29.96,SSW,203,3.6,5.4,80,0.00,,---,0.00,VWS V14.01,2013-06-24 03:37:00,
2013-06-23 22:42:00,72.7,66.2,29.96,SSW,200,3.6,3.6,80,0.00,,---,0.00,VWS V14.01,2013-06-24 03:42:00,
2013-06-23 22:47:00,72.6,66.1,29.97,SW,214,1.8,3.6,80,0.00,,---,0.00,VWS V14.01,2013-06-24 03:47:00,
2013-06-23 22:52:00,72.5,66.3,29.97,SSW,211,1.8,3.6,81,0.00,,---,0.00,VWS V14.01,2013-06-24 03:52:00,
2013-06-23 22:57:00,72.5,66.3,29.97,SSW,206,3.6,5.4,81,0.00,,---,0.00,VWS V14.01,2013-06-24 03:57:00,
2013-06-23 23:01:00,72.4,66.2,29.97,SSW,205,3.6,3.6,81,0.00,,---,0.00,VWS V14.01,2013-06-24 04:01:00,
2013-06-23 23:06:00,72.4,66.2,29.97,SSW,208,0.0,1.8,81,0.00,,---,0.00,VWS V14.01,2013-06-24 04:06:00,
2013-06-23 23:11:00,72.3,66.1,29.98,SSW,207,0.0,0.0,81,0.00,,---,0.00,VWS V14.01,2013-06-24 04:11:00,
2013-06-23 23:16:00,72.2,66.0,29.98,SSW,195,1.8,1.8,81,0.00,,---,0.00,VWS V14.01,2013-06-24 04:16:00,
2013-06-23 23:21:00,72.1,65.9,29.98,SW,224,0.0,0.0,81,0.00,,---,0.00,VWS V14.01,2013-06-24 04:21:00,
2013-06-23 23:26:00,72.1,65.9,29.98,SW,221,0.0,0.0,81,0.00,,---,0.00,VWS V14.01,2013-06-24 04:26:00,
2013-06-23 23:31:00,72.0,65.8,29.98,SSW,200,1.8,3.6,81,0.00,,---,0.00,VWS V14.01,2013-06-24 04:31:00,
2013-06-23 23:36:00,71.9,65.7,29.98,SSW,201,1.8,5.4,81,0.00,,---,0.00,VWS V14.01,2013-06-24 04:36:00,
2013-06-23 23:41:00,71.9,65.7,29.98,SSW,205,1.8,3.6,81,0.00,,---,0.00,VWS V14.01,2013-06-24 04:41:00,
2013-06-23 23:46:00,71.8,65.6,29.98,SSW,193,3.6,5.4,81,0.00,,---,0.00,VWS V14.01,2013-06-24 04:46:00,
2013-06-23 23:51:00,71.7,65.9,29.98,SE,132,0.0,0.0,82,0.00,,---,0.00,VWS V14.01,2013-06-24 04:51:00,
2013-06-23 23:56:00,71.6,65.8,29.98,SSW,204,1.8,1.8,82,0.00,,---,0.00,VWS V14.01,2013-06-24 04:56:00,